Puerto Barrios, Guatemala

7:03 AM CST on June 28, 2017 (GMT -0600)
Puerto Barrios

Weather History for MGPB - March, 2013

Change the Weather History Date:

Saturday, March 2, 2013

  Actual Average Record
Temperature  
Mean Temperature 70 °F -  
Max Temperature 76 °F 83 °F 91 °F (1997)
Min Temperature 65 °F 68 °F 60 °F (2009)
Cooling Degree Days 6    
Growing Degree Days 20 (Base 50)    
Moisture  
Dew Point 63 °F    
Average Humidity 80    
Maximum Humidity 100    
Minimum Humidity 61    
Precipitation  
Precipitation 0.04 in - - ()
Sea Level Pressure  
Sea Level Pressure 30.14 in    
Wind  
Wind Speed 8 mph ()    
Max Wind Speed 16 mph    
Max Gust Speed -    
Visibility 6.0 miles    
Events Rain    
Averages and records for this station are not official NWS values.
T = Trace of Precipitation, MM = Missing Value Source: Averaged Metar Reports

Daily Weather History Graph

Daily Weather History Graph

Search for Another Location

Airport or City:

Trip Planner

Search our weather history database for the weather conditions in past years. The results will help you decide how hot, cold, wet, or windy it might be!

Date:

Astronomy

Mar. 02, 2013 Rise Set
Actual Time 6:10 AM CST 6:02 PM CST
Civil Twilight 5:49 AM CST 6:23 PM CST
Nautical Twilight 5:24 AM CST 6:48 PM CST
Astronomical Twilight 4:59 AM CST 7:13 PM CST
Moon 10:43 PM CST (3/2) 9:33 AM CST (3/2)
Length of Visible Light 12h 34m
Length of Day
11h 51m
Waning Gibbous, 74% of the Moon is Illuminated
Mar 2
Waning Gibbous
Mar 4
Last Quarter
Mar 11
New
Mar 19
First Quarter
Mar 27
Full

Hourly Weather History & Observations

Time (CST) Temp. Dew Point Humidity Pressure Visibility Wind Dir Wind Speed Gust Speed Precip Events Conditions
12:00 AM 73.4 °F 69.8 °F 88% 30.04 in 6.2 mi West 6.9 mph - N/A   Overcast
1:00 AM 71.6 °F 66.2 °F 83% 30.01 in 6.2 mi West 9.2 mph - N/A   Overcast
4:00 AM 69.8 °F 66.2 °F 88% 30.01 in 6.2 mi West 6.9 mph - N/A   Overcast
5:00 AM 68.0 °F 68.0 °F 100% 30.04 in 5.0 mi West 6.9 mph - N/A   Light Drizzle
6:00 AM 67 °F 66 °F 96% 30.09 in 5 mi West 6.9 mph - - Rain Light Rain
6:00 AM 68.0 °F 66.2 °F 94% 30.06 in 5.0 mi West 6.9 mph - N/A Rain Light Rain
7:00 AM 66.2 °F 66.2 °F 100% 30.12 in 6.2 mi Calm Calm - N/A   Overcast
8:00 AM 68.0 °F 62.6 °F 83% 30.15 in 6.2 mi West 6.9 mph - N/A   Overcast
8:30 AM - - N/A% - 5.0 mi West 6.9 mph - N/A Rain Light Rain
9:00 AM 66.2 °F 64.4 °F 94% 29.89 in 5.6 mi West 9.2 mph - N/A   Light Drizzle
10:00 AM 69.8 °F 60.8 °F 73% 30.21 in 6.2 mi West 6.9 mph - N/A   Mostly Cloudy
11:00 AM 69.8 °F 60.8 °F 73% 30.21 in 6.2 mi West 9.2 mph - N/A   Mostly Cloudy
12:00 PM 72 °F 61 °F 61% 30.20 in 25 mi West 13.8 mph - -   Partly Cloudy
12:00 PM 71.6 °F 60.8 °F 69% 30.18 in 6.2 mi West 13.8 mph - N/A   Mostly Cloudy
1:00 PM 75.2 °F 60.8 °F 61% 30.18 in 6.2 mi West 6.9 mph - N/A   Mostly Cloudy
2:00 PM 71.6 °F 60.8 °F 69% 30.18 in 6.2 mi West 9.2 mph - N/A   Overcast
3:00 PM 71.6 °F 62.6 °F 73% 29.98 in 6.2 mi West 16.1 mph - N/A   Overcast
4:00 PM 71.6 °F 62.6 °F 73% 30.15 in 6.2 mi West 13.8 mph - N/A   Mostly Cloudy
5:00 PM 69.8 °F 62.6 °F 78% 30.15 in 6.2 mi West 16.1 mph - N/A   Overcast
6:00 PM 70 °F 62 °F 69% 30.19 in 25 mi West 9.2 mph - -   Overcast
6:00 PM 69.8 °F 62.6 °F 78% 30.18 in 6.2 mi West 9.2 mph - N/A   Mostly Cloudy
7:00 PM 68.0 °F 60.8 °F 78% 30.21 in 6.2 mi West 6.9 mph - N/A   Mostly Cloudy
8:00 PM 68.0 °F 60.8 °F 78% 30.24 in 6.2 mi West 11.5 mph - N/A   Mostly Cloudy
9:00 PM 68.0 °F 59.0 °F 73% 30.27 in 6.2 mi West 13.8 mph - N/A   Overcast
10:00 PM 66.2 °F 59.0 °F 78% 30.27 in 6.2 mi West 9.2 mph - N/A   Mostly Cloudy
11:00 PM 66.2 °F 59.0 °F 78% 30.27 in 6.2 mi West 6.9 mph - N/A   Mostly Cloudy